+ View the NASA Portal
+ Center for Near-Earth Object Studies
IMPORTANT:
The SSD Announcement email list is now available. Major changes are coming in the near future, including possible hostname and/or URL changes. To be notified of such changes, subscribe to this email list.
Please visit
this page
for more details.
Don't show this message again
JPL Small-Body Database Browser
Search:
[
help
]
266110 (2006 SU267)
Classification:
Main-belt Asteroid
SPK-ID:
2266110
[
Ephemeris
|
Orbit Diagram
|
Orbital Elements
|
Mission Design
|
Physical Parameters
|
Discovery Circumstances
|
Close-Approach Data
]
[ show orbit diagram ]
Orbital Elements at Epoch 2458600.5 (2019-Apr-27.0) TDB
Reference:
JPL 10
(heliocentric ecliptic J2000)
Element
Value
Uncertainty (1-sigma)
Units
e
.06972506497287835
7.6716e-08
a
2.178265006175519
1.8686e-08
au
q
2.026385337091784
1.6318e-07
au
i
3.957911402138911
6.9987e-06
deg
node
317.8960208143041
0.00011134
deg
peri
280.1488462980349
0.00012673
deg
M
107.4410536702749
6.5582e-05
deg
t
p
2458250.045003012608
(2018-May-11.54500301)
0.00021186
TDB
period
1174.260625762703
3.21
1.511e-05
4.137e-08
d
yr
n
.3065758930358187
3.9448e-09
deg/d
Q
2.330144675259255
1.9989e-08
au
Orbit Determination Parameters
# obs. used (total)
110
data-arc span
5841 days (15.99 yr)
first obs. used
2003-12-01
last obs. used
2019-11-28
planetary ephem.
DE431
SB-pert. ephem.
SB431-N16
condition code
0
norm. resid. RMS
.52546
source
ORB
producer
Otto Matic
solution date
2019-Dec-14 17:21:27
Additional Information
Earth MOID
= 1.01846 au
Jupiter MOID
= 2.67169 au
T_jup
= 3.677
[ show covariance matrix ]
[
Ephemeris
|
Orbit Diagram
|
Orbital Elements
|
Mission Design
|
Physical Parameters
|
Discovery Circumstances
|
Close-Approach Data
]
Physical Parameter Table
Parameter
Symbol
Value
Units
Sigma
Reference
Notes
absolute magnitude
H
18.0
n/a
MPO241573
266110 (2006 SU267)
Discovered 2006-Sep-26 by Spacewatch at Kitt Peak
Reference:
20110218/Numbers.arc
Last Updated:
2011-02-22
[ show close-approach data ]
[
Ephemeris
|
Orbit Diagram
|
Orbital Elements
|
Mission Design
|
Physical Parameters
|
Discovery Circumstances
|
Close-Approach Data
]
2019-Dec-15 09:05 UT
(server date/time)
Site Manager:
Ryan S. Park
Webmaster
:
Alan B. Chamberlin